| time (UTC) | temp F | wind direction | speed MPH | gust MPH | rain 1hr in | rain 24hr in | rain mn in | humidity % | barometer mb |
| 20260507161600 | 54 | 64 | 1.0 | 9.0 | 0.00 | 0.02 | 0.02 | 75 | 1013.0 |
| 20260507160117 | 55 | 89 | 0.0 | 8.0 | 0.00 | 0.02 | 0.02 | 74 | 1013.0 |
| 20260507154559 | 55 | 49 | 0.0 | 6.0 | 0.00 | 0.03 | 0.02 | 69 | 1013.0 |
| 20260507153057 | 54 | 134 | 0.0 | 1.0 | 0.00 | 0.03 | 0.02 | 68 | 1013.1 |
| 20260507151600 | 54 | 145 | 0.0 | 0.0 | 0.00 | 0.03 | 0.02 | 68 | 1013.0 |
| 20260507150056 | 54 | 198 | 0.0 | 4.0 | 0.00 | 0.03 | 0.02 | 67 | 1013.0 |
| 20260507144557 | 55 | 207 | 0.0 | 0.0 | 0.00 | 0.10 | 0.02 | 68 | 1013.0 |
| 20260507143103 | 56 | 206 | 0.0 | 1.0 | 0.00 | 0.10 | 0.02 | 67 | 1013.0 |
| 20260507141605 | 55 | 191 | 1.0 | 5.0 | 0.00 | 0.10 | 0.02 | 64 | 1013.0 |
| 20260507140109 | 55 | 205 | 0.0 | 1.0 | 0.00 | 0.10 | 0.02 | 66 | 1013.0 |
| 20260507134551 | 55 | 219 | 0.0 | 6.0 | 0.00 | 0.12 | 0.02 | 68 | 1012.9 |
| 20260507133056 | 55 | 233 | 0.0 | 1.0 | 0.00 | 0.12 | 0.02 | 68 | 1013.1 |
| 20260507131614 | 55 | 178 | 0.0 | 1.0 | 0.00 | 0.12 | 0.02 | 69 | 1013.2 |
| 20260507130049 | 55 | 165 | 0.0 | 6.0 | 0.00 | 0.12 | 0.02 | 67 | 1013.0 |
| 20260507124554 | 56 | 231 | 0.0 | 4.0 | 0.00 | 0.12 | 0.02 | 70 | 1013.1 |
| 20260507123046 | 55 | 196 | 0.0 | 0.0 | 0.00 | 0.12 | 0.02 | 69 | 1013.1 |
| 20260507121544 | 54 | 149 | 0.0 | 0.0 | 0.00 | 0.12 | 0.02 | 70 | 1013.1 |
| 20260507120044 | 53 | 222 | 0.0 | 8.0 | 0.00 | 0.12 | 0.02 | 70 | 1013.1 |
| 20260507114544 | 52 | 232 | 0.0 | 4.0 | 0.00 | 0.12 | 0.02 | 72 | 1013.0 |
| 20260507113104 | 53 | 217 | 0.0 | 4.0 | 0.00 | 0.12 | 0.02 | 70 | 1013.1 |
| 20260507111542 | 54 | 145 | 0.0 | 7.0 | 0.00 | 0.12 | 0.02 | 72 | 1013.0 |
| 20260507110042 | 52 | 165 | 0.0 | 7.0 | 0.00 | 0.12 | 0.02 | 74 | 1013.1 |
| 20260507104549 | 53 | 149 | 0.0 | 4.0 | 0.00 | 0.12 | 0.02 | 72 | 1013.2 |
| 20260507103040 | 55 | 194 | 0.0 | 2.0 | 0.00 | 0.12 | 0.02 | 72 | 1013.2 |
| 20260507101539 | 55 | 197 | 0.0 | 4.0 | 0.00 | 0.12 | 0.02 | 72 | 1013.2 |
| 20260507100046 | 54 | 180 | 0.0 | 4.0 | 0.00 | 0.12 | 0.02 | 72 | 1013.2 |
| 20260507094537 | 52 | 194 | 0.0 | 0.0 | 0.00 | 0.12 | 0.02 | 72 | 1013.3 |
| 20260507093035 | 52 | 176 | 0.0 | 3.0 | 0.00 | 0.12 | 0.02 | 72 | 1013.3 |
| 20260507091539 | 53 | 203 | 0.0 | 0.0 | 0.00 | 0.12 | 0.02 | 75 | 1013.2 |
| 20260507090029 | 52 | 209 | 1.0 | 7.0 | 0.00 | 0.12 | 0.02 | 73 | 1013.2 |
| 20260507084544 | 51 | 192 | 1.0 | 4.0 | 0.00 | 0.13 | 0.02 | 76 | 1013.1 |
| 20260507083026 | 51 | 165 | 0.0 | 0.0 | 0.00 | 0.13 | 0.02 | 76 | 1012.9 |
| 20260507081521 | 49 | 165 | 0.0 | 0.0 | 0.00 | 0.13 | 0.02 | 81 | 1013.1 |
| 20260507080017 | 47 | 182 | 0.0 | 0.0 | 0.01 | 0.13 | 0.02 | 82 | 1013.1 |
| 20260507074516 | 47 | 163 | 0.0 | 3.0 | 0.02 | 0.13 | 0.02 | 86 | 1013.1 |
| 20260507073012 | 46 | 180 | 0.0 | 1.0 | 0.02 | 0.13 | 0.02 | 89 | 1012.9 |
| 20260507071516 | 45 | 259 | 0.0 | 1.0 | 0.02 | 0.13 | 0.02 | 92 | 1013.2 |
| 20260507070017 | 44 | 246 | 0.0 | 0.0 | 0.02 | 0.12 | 0.02 | 92 | 1013.1 |
| 20260507064508 | 45 | 241 | 0.0 | 0.0 | 0.00 | 0.10 | 0.00 | 90 | 1013.0 |
| 20260507063007 | 45 | 230 | 0.0 | 1.0 | 0.00 | 0.10 | 0.00 | 90 | 1012.7 |
| 20260507061503 | 44 | 261 | 0.0 | 3.0 | 0.00 | 0.10 | 0.00 | 90 | 1012.7 |
| 20260507060001 | 44 | 359 | 0.0 | 0.0 | 0.00 | 0.10 | 0.00 | 92 | 1012.6 |
| 20260507054559 | 44 | 359 | 0.0 | 0.0 | 0.00 | 0.10 | 0.00 | 92 | 1012.4 |
| 20260507053058 | 43 | 359 | 0.0 | 0.0 | 0.00 | 0.10 | 0.00 | 93 | 1012.0 |
| 20260507051606 | 43 | 359 | 0.0 | 0.0 | 0.00 | 0.10 | 0.00 | 93 | 1012.0 |
| 20260507050108 | 42 | 359 | 0.0 | 0.0 | 0.00 | 0.10 | 0.00 | 94 | 1011.9 |
| 20260507044557 | 42 | 359 | 0.0 | 0.0 | 0.00 | 0.10 | 0.00 | 93 | 1011.8 |
| 20260507043052 | 42 | 359 | 0.0 | 0.0 | 0.00 | 0.10 | 0.00 | 93 | 1011.6 |
| 20260507041550 | 43 | 359 | 0.0 | 0.0 | 0.00 | 0.10 | 0.00 | 93 | 1011.4 |
| 20260507040051 | 42 | 359 | 0.0 | 0.0 | 0.00 | 0.10 | 0.00 | 93 | 1011.4 |
| 20260507034548 | 42 | 359 | 0.0 | 0.0 | 0.00 | 0.10 | 0.00 | 94 | 1011.3 |
| 20260507033049 | 42 | 359 | 0.0 | 0.0 | 0.00 | 0.10 | 0.00 | 94 | 1011.3 |
| 20260507031548 | 42 | 359 | 0.0 | 0.0 | 0.00 | 0.10 | 0.00 | 94 | 1011.2 |
| 20260507030047 | 41 | 359 | 0.0 | 0.0 | 0.00 | 0.10 | 0.00 | 93 | 1011.1 |
| 20260507024548 | 41 | 359 | 0.0 | 0.0 | 0.00 | 0.10 | 0.00 | 93 | 1011.0 |
| 20260507023042 | 42 | 359 | 0.0 | 0.0 | 0.00 | 0.10 | 0.00 | 93 | 1010.9 |
| 20260507021554 | 42 | 359 | 0.0 | 0.0 | 0.00 | 0.10 | 0.00 | 93 | 1010.9 |
| 20260507020041 | 42 | 359 | 0.0 | 0.0 | 0.00 | 0.10 | 0.00 | 93 | 1010.8 |
| 20260507014540 | 42 | 359 | 0.0 | 0.0 | 0.00 | 0.10 | 0.00 | 93 | 1010.8 |
| 20260507013038 | 42 | 359 | 0.0 | 0.0 | 0.00 | 0.10 | 0.00 | 93 | 1010.7 |
| 20260507011539 | 42 | 359 | 0.0 | 0.0 | 0.00 | 0.10 | 0.00 | 93 | 1010.8 |
| 20260507010043 | 42 | 359 | 0.0 | 0.0 | 0.00 | 0.10 | 0.00 | 93 | 1010.7 |
| 20260507004536 | 42 | 359 | 0.0 | 0.0 | 0.00 | 0.10 | 0.00 | 92 | 1010.6 |
| 20260507003034 | 43 | 359 | 0.0 | 0.0 | 0.00 | 0.10 | 0.00 | 93 | 1010.4 |
| 20260507001535 | 43 | 359 | 0.0 | 0.0 | 0.00 | 0.10 | 0.00 | 92 | 1010.4 |
| 20260507000036 | 43 | 359 | 0.0 | 0.0 | 0.00 | 0.10 | 0.00 | 93 | 1010.5 |
| 20260506234535 | 44 | 359 | 0.0 | 0.0 | 0.00 | 0.10 | 0.00 | 92 | 1010.3 |
| 20260506233031 | 43 | 359 | 0.0 | 0.0 | 0.00 | 0.10 | 0.00 | 93 | 1010.3 |
| 20260506231530 | 43 | 359 | 0.0 | 0.0 | 0.00 | 0.10 | 0.00 | 93 | 1010.5 |
| 20260506230032 | 43 | 359 | 0.0 | 0.0 | 0.00 | 0.10 | 0.00 | 93 | 1010.5 |
| 20260506224529 | 43 | 329 | 0.0 | 0.0 | 0.00 | 0.10 | 0.00 | 92 | 1010.5 |
| 20260506223023 | 43 | 326 | 0.0 | 0.0 | 0.00 | 0.10 | 0.00 | 93 | 1010.3 |
| 20260506221523 | 43 | 326 | 0.0 | 0.0 | 0.00 | 0.10 | 0.00 | 92 | 1010.2 |
| 20260506220028 | 43 | 326 | 0.0 | 0.0 | 0.00 | 0.10 | 0.00 | 92 | 1010.2 |
| 20260506214519 | 43 | 326 | 0.0 | 0.0 | 0.00 | 0.10 | 0.10 | 92 | 1010.3 |
| 20260506213022 | 43 | 326 | 0.0 | 0.0 | 0.00 | 0.10 | 0.10 | 92 | 1010.0 |
| 20260506211516 | 43 | 326 | 0.0 | 0.0 | 0.00 | 0.10 | 0.10 | 91 | 1010.1 |
| 20260506210015 | 44 | 327 | 0.0 | 1.0 | 0.00 | 0.10 | 0.10 | 91 | 1009.9 |
| 20260506204515 | 44 | 330 | 0.0 | 0.0 | 0.00 | 0.10 | 0.10 | 92 | 1010.0 |
| 20260506203022 | 44 | 330 | 0.0 | 0.0 | 0.00 | 0.10 | 0.10 | 92 | 1009.9 |
| 20260506201513 | 44 | 330 | 0.0 | 0.0 | 0.00 | 0.10 | 0.10 | 91 | 1009.7 |
| 20260506200011 | 44 | 330 | 0.0 | 0.0 | 0.00 | 0.10 | 0.10 | 91 | 1009.6 |
| 20260506194512 | 44 | 330 | 0.0 | 0.0 | 0.00 | 0.15 | 0.10 | 91 | 1009.6 |
| 20260506193014 | 44 | 330 | 0.0 | 0.0 | 0.00 | 0.15 | 0.10 | 90 | 1009.2 |
| 20260506191511 | 44 | 330 | 0.0 | 3.0 | 0.00 | 0.15 | 0.10 | 90 | 1009.0 |
| 20260506190008 | 44 | 292 | 0.0 | 0.0 | 0.00 | 0.15 | 0.10 | 90 | 1008.9 |
| 20260506184505 | 44 | 292 | 0.0 | 1.0 | 0.00 | 0.22 | 0.10 | 90 | 1008.6 |
| 20260506183005 | 44 | 273 | 0.0 | 0.0 | 0.00 | 0.22 | 0.10 | 89 | 1008.4 |
| 20260506181506 | 45 | 278 | 0.0 | 0.0 | 0.00 | 0.22 | 0.10 | 88 | 1008.0 |
| 20260506180007 | 45 | 255 | 0.0 | 0.0 | 0.00 | 0.22 | 0.10 | 87 | 1008.1 |
| 20260506174503 | 46 | 238 | 0.0 | 0.0 | 0.00 | 0.23 | 0.10 | 86 | 1008.1 |
| 20260506173003 | 47 | 251 | 0.0 | 0.0 | 0.00 | 0.23 | 0.10 | 85 | 1007.9 |
| 20260506171505 | 48 | 261 | 0.0 | 8.0 | 0.00 | 0.23 | 0.10 | 83 | 1007.9 |
| 20260506170002 | 48 | 247 | 0.0 | 0.0 | 0.00 | 0.23 | 0.10 | 83 | 1007.8 |
| 20260506164601 | 49 | 217 | 1.0 | 9.0 | 0.00 | 0.23 | 0.10 | 80 | 1007.5 |
| 20260506163104 | 51 | 188 | 0.0 | 0.0 | 0.00 | 0.23 | 0.10 | 77 | 1007.3 |